This is the latest recevied weather packets stored in our database for station/object EB2EMZ-15. If no packets are shown the sender has not sent any weather packets the latest 10 day(s).
| Time | Temp. | Humidity | Pressure | Rain* | Wind** | Luminosity | Snow |
|---|---|---|---|---|---|---|---|
| 1777729224 | 18.89° C | 74% | 994.6 hPa | 0 mm | - | - | - |
| 1777728921 | 18.89° C | 73% | 994.7 hPa | 0 mm | - | - | - |
| 1777728623 | 18.89° C | 72% | 994.8 hPa | 0 mm | - | - | - |
| 1777728320 | 18.89° C | 71% | 994.8 hPa | 0 mm | - | - | - |
| 1777728023 | 18.89° C | 71% | 994.6 hPa | 0 mm | - | - | - |
| 1777727721 | 19.44° C | 69% | 994.8 hPa | 0 mm | - | - | - |
| 1777727423 | 20° C | 69% | 995.1 hPa | 0 mm | - | - | - |
| 1777727122 | 20.56° C | 70% | 995.1 hPa | 0 mm | - | - | - |
| 1777726821 | 21.11° C | 72% | 995 hPa | 0 mm | - | - | - |
| 1777726520 | 21.67° C | 71% | 994.6 hPa | 0 mm | - | - | - |
| 1777726223 | 21.67° C | 70% | 994.4 hPa | 0 mm | - | - | - |
| 1777725921 | 22.22° C | 69% | 994.4 hPa | 0 mm | - | - | - |
| 1777725623 | 22.22° C | 68% | 994.2 hPa | 0 mm | - | - | - |
| 1777725322 | 22.22° C | 69% | 994.2 hPa | 0 mm | - | - | - |
| 1777725024 | 22.22° C | 69% | 994.3 hPa | 0 mm | - | - | - |
| 1777724721 | 22.22° C | 69% | 994.3 hPa | 0 mm | - | - | - |
| 1777724423 | 22.22° C | 68% | 994.2 hPa | 0 mm | - | - | - |
| 1777724121 | 22.22° C | 68% | 994.2 hPa | 0 mm | - | - | - |
| 1777723824 | 21.67° C | 69% | 994.2 hPa | 0 mm | - | - | - |
| 1777723521 | 21.67° C | 70% | 994.3 hPa | 0 mm | - | - | - |
| 1777723221 | 21.67° C | 72% | 994.2 hPa | 0 mm | - | - | - |
| 1777722921 | 21.11° C | 73% | 994.1 hPa | 0 mm | - | - | - |
| 1777722624 | 20.56° C | 74% | 994.2 hPa | 0 mm | - | - | - |
| 1777722320 | 20.56° C | 75% | 994.4 hPa | 0 mm | - | - | - |
| 1777722023 | 20° C | 76% | 994.5 hPa | 0 mm | - | - | - |
* Rain latest hour (hover to see other rain measurements)
** Current wind speed in m/s (hover to see current wind gust speed)